User: anonymous   Login
Location: Unspecified
(0.0000°N, 0.0000°E)
Time: 06:16:01
(UTC+02:00)
Language:

CZ-4B R/B - Orbit

View from above orbital plane
View from above orbital plane
View from above satellite
View from above satellite

Ground track
Ground track

The orbit data is extracted from the following two-line orbital elements,

1 33410U 08053C   15142.85982363  .00001641  00000-0  12923-3 0  9996
2 33410 097.6283 115.1189 0124144 208.0476 151.4021 14.96338857357594
Epoch (UTC): 22 May 2015 20:38:08
Eccentricity: 0.0124144
inclination: 97.6283°
perigee height: 492 km
apogee height: 664 km
right ascension of ascending node: 115.1189°
argument of perigee: 208.0476°
revolutions per day: 14.96338857
mean anomaly at epoch: 151.4021°
orbit number at epoch: 35759

The dashed part of the orbit path shows where the satellite is in the earth's shadow,  

DLR